TimeEST,TemperatureF,Dew PointF,Humidity,Sea Level PressureIn,VisibilityMPH,Wind Direction,Wind SpeedMPH,Gust SpeedMPH,PrecipitationIn,Events,Conditions,WindDirDegrees,DateUTC
12:15 AM,46.4,46.4,100,29.98,2.0,WSW,9.2,-,N/A,,Clear,250,2012-12-09 05:15:00
12:35 AM,46.4,46.4,100,29.99,1.2,West,8.1,-,N/A,,Clear,260,2012-12-09 05:35:00
12:55 AM,46.4,46.4,100,29.99,0.8,West,8.1,-,N/A,,Mist,260,2012-12-09 05:55:00
1:15 AM,46.4,46.4,100,29.99,0.8,WSW,6.9,-,N/A,,Mist,250,2012-12-09 06:15:00
1:35 AM,46.4,46.4,100,30.01,0.5,WSW,9.2,-,N/A,Fog,Fog,250,2012-12-09 06:35:00
1:55 AM,46.4,46.4,100,30.02,0.2,WSW,8.1,-,N/A,Fog,Fog,250,2012-12-09 06:55:00
2:15 AM,46.4,46.4,100,30.02,0.5,WSW,8.1,-,N/A,Fog,Fog,250,2012-12-09 07:15:00
2:35 AM,46.4,46.4,100,30.03,0.2,WSW,6.9,-,N/A,Fog,Fog,240,2012-12-09 07:35:00
2:55 AM,46.4,46.4,100,30.04,0.2,West,5.8,-,N/A,Fog,Fog,260,2012-12-09 07:55:00
3:15 AM,46.4,46.4,100,30.04,0.5,West,5.8,-,N/A,Fog,Fog,260,2012-12-09 08:15:00
3:35 AM,46.4,46.4,100,30.05,0.5,West,8.1,-,N/A,Fog,Fog,260,2012-12-09 08:35:00
3:55 AM,46.4,46.4,100,30.06,0.2,West,6.9,-,N/A,Fog,Fog,280,2012-12-09 08:55:00
4:15 AM,46.4,44.6,93,30.07,2.0,West,4.6,-,N/A,,Clear,270,2012-12-09 09:15:00
4:35 AM,44.6,44.6,100,30.07,0.8,West,4.6,-,N/A,,Mist,280,2012-12-09 09:35:00
4:55 AM,44.6,42.8,93,30.08,1.0,WNW,3.5,-,N/A,,Clear,290,2012-12-09 09:55:00
5:15 AM,44.6,44.6,100,30.09,1.5,West,3.5,-,N/A,,Clear,270,2012-12-09 10:15:00
5:35 AM,42.8,42.8,100,30.10,0.5,West,4.6,-,N/A,Fog,Fog,280,2012-12-09 10:35:00
5:55 AM,42.8,41.0,93,30.11,4.0,NW,4.6,-,N/A,,Clear,310,2012-12-09 10:55:00
6:15 AM,41.0,41.0,100,30.13,7.0,NW,6.9,-,N/A,,Clear,320,2012-12-09 11:15:00
6:35 AM,41.0,41.0,100,30.14,7.0,NW,5.8,-,N/A,,Clear,310,2012-12-09 11:35:00
6:55 AM,41.0,41.0,100,30.15,10.0,NW,5.8,-,N/A,,Clear,320,2012-12-09 11:55:00
7:15 AM,42.8,41.0,93,30.16,10.0,NW,6.9,-,N/A,,Clear,320,2012-12-09 12:15:00
7:35 AM,42.8,41.0,93,30.17,10.0,NW,5.8,-,N/A,,Clear,320,2012-12-09 12:35:00
7:55 AM,42.8,41.0,93,30.17,10.0,NNW,5.8,-,N/A,,Clear,330,2012-12-09 12:55:00
8:15 AM,44.6,42.8,93,30.19,10.0,NNW,10.4,-,N/A,,Clear,330,2012-12-09 13:15:00
8:35 AM,44.6,41.0,87,30.21,10.0,NNW,9.2,-,N/A,,Clear,330,2012-12-09 13:35:00
8:55 AM,46.4,41.0,81,30.22,10.0,NNW,8.1,-,N/A,,Clear,330,2012-12-09 13:55:00
9:15 AM,46.4,41.0,81,30.23,10.0,North,8.1,-,N/A,,Clear,350,2012-12-09 14:15:00
9:35 AM,46.4,39.2,76,30.24,10.0,North,10.4,-,N/A,,Clear,360,2012-12-09 14:35:00
9:55 AM,48.2,37.4,66,30.23,10.0,North,8.1,18.4,N/A,,Clear,360,2012-12-09 14:55:00
10:15 AM,48.2,37.4,66,30.23,10.0,NNE,10.4,17.3,N/A,,Clear,30,2012-12-09 15:15:00
10:35 AM,48.2,37.4,66,30.23,10.0,NNE,11.5,19.6,N/A,,Clear,20,2012-12-09 15:35:00
10:55 AM,48.2,37.4,66,30.23,10.0,NNE,10.4,19.6,N/A,,Clear,20,2012-12-09 15:55:00
11:15 AM,46.4,37.4,71,30.22,10.0,NNE,11.5,20.7,N/A,,Unknown,20,2012-12-09 16:15:00
11:35 AM,46.4,37.4,71,30.22,10.0,North,13.8,20.7,N/A,,Clear,10,2012-12-09 16:35:00
11:55 AM,46.4,35.6,66,30.22,10.0,NNE,12.7,19.6,N/A,,Unknown,20,2012-12-09 16:55:00
12:15 PM,46.4,35.6,66,30.22,10.0,NNE,11.5,19.6,N/A,,Clear,20,2012-12-09 17:15:00
12:35 PM,44.6,32.0,61,30.22,10.0,NNE,15.0,20.7,N/A,,Unknown,30,2012-12-09 17:35:00
12:55 PM,44.6,32.0,61,30.21,10.0,North,12.7,20.7,N/A,,Unknown,10,2012-12-09 17:55:00
1:15 PM,44.6,32.0,61,30.22,10.0,NNE,11.5,19.6,N/A,,Unknown,30,2012-12-09 18:15:00
1:35 PM,44.6,32.0,61,30.22,10.0,NNE,11.5,16.1,N/A,,Unknown,20,2012-12-09 18:35:00
1:55 PM,44.6,32.0,61,30.24,10.0,NNE,8.1,-,N/A,,Unknown,20,2012-12-09 18:55:00
2:15 PM,44.6,32.0,61,30.25,10.0,North,6.9,-,N/A,,Unknown,10,2012-12-09 19:15:00
2:35 PM,44.6,32.0,61,30.25,10.0,NNE,8.1,-,N/A,,Clear,30,2012-12-09 19:35:00
2:55 PM,44.6,33.8,66,30.26,10.0,NNE,5.8,-,N/A,,Unknown,20,2012-12-09 19:55:00
3:15 PM,44.6,33.8,66,30.26,10.0,NE,6.9,-,N/A,,Unknown,50,2012-12-09 20:15:00
3:35 PM,44.6,35.6,71,30.27,10.0,NNE,6.9,-,N/A,,Clear,30,2012-12-09 20:35:00
3:55 PM,42.8,35.6,76,30.26,10.0,NE,5.8,-,N/A,,Clear,40,2012-12-09 20:55:00
4:15 PM,42.8,35.6,76,30.27,10.0,NE,4.6,-,N/A,,Clear,50,2012-12-09 21:15:00
4:35 PM,42.8,35.6,76,30.27,10.0,NE,4.6,-,N/A,,Clear,40,2012-12-09 21:35:00
4:55 PM,42.8,37.4,81,30.27,10.0,East,3.5,-,N/A,,Clear,80,2012-12-09 21:55:00
5:15 PM,42.8,37.4,81,30.27,10.0,East,4.6,-,N/A,,Clear,80,2012-12-09 22:15:00
5:35 PM,44.6,37.4,76,30.27,10.0,East,5.8,-,N/A,,Clear,80,2012-12-09 22:35:00
5:55 PM,42.8,37.4,81,30.26,10.0,East,8.1,-,N/A,,Clear,80,2012-12-09 22:55:00
6:15 PM,42.8,37.4,81,30.26,10.0,East,6.9,-,N/A,,Clear,90,2012-12-09 23:15:00
6:35 PM,42.8,39.2,87,30.27,9.0,East,4.6,-,N/A,Rain,Light Rain,80,2012-12-09 23:35:00
6:55 PM,42.8,39.2,87,30.28,10.0,NE,5.8,-,N/A,Rain,Light Rain,50,2012-12-09 23:55:00
7:15 PM,41.0,39.2,93,30.27,10.0,ENE,8.1,-,N/A,,Clear,60,2012-12-10 00:15:00
7:35 PM,41.0,39.2,93,30.28,10.0,ENE,5.8,-,N/A,,Clear,60,2012-12-10 00:35:00
7:55 PM,41.0,39.2,93,30.28,8.0,ENE,5.8,-,N/A,Rain,Light Rain,70,2012-12-10 00:55:00
8:15 PM,41.0,39.2,93,30.27,10.0,ENE,5.8,-,N/A,Rain,Light Rain,70,2012-12-10 01:15:00
8:35 PM,41.0,39.2,93,30.26,7.0,East,8.1,-,N/A,Rain,Light Rain,90,2012-12-10 01:35:00
8:55 PM,41.0,39.2,93,30.24,9.0,East,6.9,-,N/A,Rain,Light Rain,90,2012-12-10 01:55:00
9:15 PM,41.0,39.2,93,30.23,10.0,East,8.1,-,N/A,Rain,Light Rain,90,2012-12-10 02:15:00
9:35 PM,41.0,39.2,93,30.22,8.0,East,8.1,-,N/A,,Clear,80,2012-12-10 02:35:00
9:55 PM,41.0,41.0,100,30.22,10.0,East,6.9,-,N/A,,Clear,100,2012-12-10 02:55:00
10:15 PM,42.8,41.0,93,30.21,10.0,East,6.9,-,N/A,,Clear,90,2012-12-10 03:15:00
10:35 PM,42.8,41.0,93,30.20,10.0,East,6.9,-,N/A,,Clear,90,2012-12-10 03:35:00
10:55 PM,42.8,41.0,93,30.19,9.0,East,8.1,-,N/A,,Clear,100,2012-12-10 03:55:00
11:15 PM,42.8,41.0,93,30.17,5.0,East,9.2,-,N/A,Rain,Light Rain,100,2012-12-10 04:15:00
11:35 PM,44.6,42.8,93,30.16,5.0,ESE,12.7,17.3,N/A,,Clear,110,2012-12-10 04:35:00
11:55 PM,44.6,42.8,93,30.15,5.0,ESE,11.5,-,N/A,,Clear,110,2012-12-10 04:55:00